Regional Weather Roundup
Issued by NWS

Home | Current Version | Previous Version | Graphics & Text | Print | Product List | Glossary On
Versions: 1 2 3 4 5 6 7 8 9 10 11 12 13 14 15 16 17 18 19 20 21 22 23 24 25 26 27 28 29 30 31 32 33 34 35 36 37 38 39 40 41 42 43 44 45 46 47 48 49 50
000
ASUS45 KABQ 221101
RWRNM
WEATHER ROUNDUP FOR NEW MEXICO
NATIONAL WEATHER SERVICE ALBUQUERQUE NM
500 AM MDT FRI AUG 22 2014

NOTE: "FAIR" MEANS FEW OR NO CLOUDS BELOW 12,000 FEET AGL WITH NO
       SIGNIFICANT WEATHER OR OBSTRUCTIONS TO VISION.

      THIS PRODUCT IS RELEASED AS TWO VERSIONS.  ONE VERSION NEAR
      THE TOP OF THE HOUR CONTAINING PRELIMINARY DATA FROM ALBUQUERQUE
      AND OTHER STATIONS.  A FINAL VERSION WITH ADDITIONAL DATA IS
      ISSUED ABOUT 10 MINUTES AFTER THE HOUR.

NMZ501-503-504-510>518-221200-
NORTHWEST PLATEAU/NORTHCENTRAL MOUNTAINS

CITY           SKY/WX    TMP DP  RH WIND       PRES   REMARKS
FARMINGTON     CLOUDY    58  55  90 CALM      30.17S
LOS ALAMOS     MOCLDY    64  36  36 SW6       30.24S
SANTA FE       CLOUDY    63  40  42 SE6       30.19R
TAOS           MOCLDY    57  36  44 CALM      30.24F
ANGEL FIRE     FAIR      46  42  84 CALM      30.34R

$$
NMZ402-403-502-505>509-221200-
WESTCENTRAL MOUNTAINS/SOUTHWEST MOUNTAINS

CITY           SKY/WX    TMP DP  RH WIND       PRES   REMARKS
GALLUP         CLOUDY    56  54  93 CALM      30.25R
SILVER CITY    CLOUDY    66  50  55 W6        30.19S

$$
NMZ407-409-411-412-221200-
SOUTHERN DESERTS

CITY           SKY/WX    TMP DP  RH WIND       PRES   REMARKS
LORDSBURG      CLOUDY    68  54  60 W3        30.11S
DEMING         CLOUDY    70  57  63 CALM      30.12S
LAS CRUCES     LGT RAIN  64  63  94 E5        30.16S
HOLLOMAN AFB   MOCLDY    66  64  94 S10       30.15R
ALAMOGORDO     LGT RAIN  64  63  94 S10       30.17R
T OR C         LGT RAIN  68  60  75 S10       30.14R

$$
NMZ519>523-221200-
CENTRAL VALLEYS/CENTRAL HIGHLANDS

CITY           SKY/WX    TMP DP  RH WIND       PRES   REMARKS
ALBUQUERQUE    MOCLDY    71  46  40 NW8       30.15S
DOUBLE EAGLE   MOCLDY    66  46  47 NW9       30.18R
CLINES CORNERS CLOUDY    63  44  50 W10       30.22S
BELEN          FAIR      66  50  55 W6        30.14S
SOCORRO        CLOUDY    72  50  45 N6        30.13R

$$
NMZ524>526-539-540-221200-
SOUTHCENTRAL MOUNTAINS

CITY           SKY/WX    TMP DP  RH WIND       PRES   REMARKS
RUIDOSO        NOT AVBL

$$
NMZ527>531-221200-
NORTHEAST HIGHLANDS/NORTHEAST PLAINS

CITY           SKY/WX    TMP DP  RH WIND       PRES   REMARKS
LAS VEGAS      MOCLDY    60  42  51 S9        30.21S
RATON          CLOUDY    58  44  60 E6        30.16R
CLAYTON        CLEAR     67  48  50 W8        30.07R

$$
NMZ532>537-221200-
EASTCENTRAL PLAINS

CITY           SKY/WX    TMP DP  RH WIND       PRES   REMARKS
TUCUMCARI      MOCLDY    76  56  49 S9        30.02S
CANNON AFB     NOT AVBL
CLOVIS AIRPORT   N/A     70  61  73 S10       30.11R

$$
NMZ028-029-538-221200-
SOUTHEAST PLAINS

CITY           SKY/WX    TMP DP  RH WIND       PRES   REMARKS
ROSWELL        PTCLDY    72  59  63 S10       30.04R
ARTESIA        CLEAR     75  59  57 W14G20    30.05R
CARLSBAD       PTCLDY    77  60  55 W18       30.01S


$$


USA.gov is the U.S. government's official web portal to all federal, state and local government web resources and services.